Epoch 2020 Nov. 7.0 TT = JDT 2459160.5 T 2020 Nov. 17.87322 TT Rudenko q 1.3330176 (2000.0) P Q n 0.15314455 Peri. 0.42763 +0.81128947 -0.55883944 a 3.4599383 Node 35.36933 +0.53551612 +0.59242160 e 0.6147279 Incl. 17.26317 +0.23458876 +0.58028884 P 6.44 From 282 observations 1986 Sept. 3-2020 Sept. 23, mean residual 0".5.
m1 = 16.8 + 5 logΔ + 5.0 log r [ ,-60] ( 〜2020年 9月18日) m1 = -3.5 + 5 logΔ + 120 log r [-60, 0] (2020年 9月18日〜2020年11月17日) m1 = 7.0 + 5 logΔ + 35 log r(t - 15) [ 0, ] (2020年11月17日〜 )